<?xml version="1.0" encoding="UTF-8" standalone="no" ?>
<gpx xmlns="http://www.topografix.com/GPX/1/1" xmlns:xsi="http://www.w3.org/2001/XMLSchema-instance" xsi:schemaLocation="http://www.topografix.com/GPX/1/1 http://www.topografix.com/GPX/1/1/gpx.xsd" version="1.1" creator="VisuGPX - https://www.visugpx.com">
  <metadata>
    <name>vtt 60 km autour de caidelle </name>
  </metadata>
  <trk>
    <name><![CDATA[2009MonflanquinCorconat]]></name>
    <extensions>
      <line xmlns="http://www.topografix.com/GPX/gpx_style/0/2">
        <color>0000FF</color>
        <width>4</width>
      </line>
    </extensions>
    <trkseg>
      <trkpt lat="44.52999" lon="0.76865">
        <ele>148</ele>
        <time>2007-03-27T15:43:12Z</time>
      </trkpt>
      <trkpt lat="44.52995" lon="0.76889">
        <ele>147</ele>
        <time>2007-03-27T15:43:12Z</time>
      </trkpt>
      <trkpt lat="44.52996" lon="0.76903">
        <ele>146</ele>
        <time>2009-02-25T17:05:56Z</time>
      </trkpt>
      <trkpt lat="44.53008" lon="0.76904">
        <ele>148</ele>
        <time>2009-02-25T17:05:56Z</time>
      </trkpt>
      <trkpt lat="44.53017" lon="0.76916">
        <ele>149</ele>
        <time>2009-02-25T17:05:56Z</time>
      </trkpt>
      <trkpt lat="44.53014" lon="0.76935">
        <ele>147</ele>
        <time>2007-03-27T15:43:12Z</time>
      </trkpt>
      <trkpt lat="44.53016" lon="0.76972">
        <ele>145</ele>
        <time>2007-03-27T15:43:12Z</time>
      </trkpt>
      <trkpt lat="44.53021" lon="0.77008">
        <ele>143</ele>
        <time>2007-03-27T15:43:12Z</time>
      </trkpt>
      <trkpt lat="44.53025" lon="0.77038">
        <ele>141</ele>
        <time>2007-03-27T15:43:12Z</time>
      </trkpt>
      <trkpt lat="44.53016" lon="0.77044">
        <ele>139</ele>
        <time>2009-02-25T17:05:56Z</time>
      </trkpt>
      <trkpt lat="44.52991" lon="0.77058">
        <ele>135</ele>
        <time>2007-03-27T15:43:12Z</time>
      </trkpt>
      <trkpt lat="44.52975" lon="0.77086">
        <ele>131</ele>
        <time>2007-03-27T15:43:12Z</time>
      </trkpt>
      <trkpt lat="44.52956" lon="0.77122">
        <ele>125</ele>
        <time>2007-03-27T15:43:12Z</time>
      </trkpt>
      <trkpt lat="44.52935" lon="0.77162">
        <ele>120</ele>
        <time>2007-03-27T15:43:12Z</time>
      </trkpt>
      <trkpt lat="44.52926" lon="0.77188">
        <ele>120</ele>
        <time>2007-03-27T15:43:12Z</time>
      </trkpt>
      <trkpt lat="44.52918" lon="0.77222">
        <ele>120</ele>
        <time>2007-03-27T15:43:12Z</time>
      </trkpt>
      <trkpt lat="44.5291" lon="0.77273">
        <ele>121</ele>
        <time>2007-03-27T15:43:12Z</time>
      </trkpt>
      <trkpt lat="44.52899" lon="0.77314">
        <ele>123</ele>
        <time>2007-03-27T15:43:12Z</time>
      </trkpt>
      <trkpt lat="44.52892" lon="0.7733">
        <ele>123</ele>
        <time>2007-03-27T15:43:12Z</time>
      </trkpt>
      <trkpt lat="44.52875" lon="0.77351">
        <ele>124</ele>
        <time>2007-03-27T15:43:12Z</time>
      </trkpt>
      <trkpt lat="44.52857" lon="0.77364">
        <ele>123</ele>
        <time>2007-03-27T15:43:12Z</time>
      </trkpt>
      <trkpt lat="44.52829" lon="0.77374">
        <ele>121</ele>
        <time>2007-03-27T15:43:12Z</time>
      </trkpt>
      <trkpt lat="44.52801" lon="0.77381">
        <ele>118</ele>
        <time>2007-03-27T15:43:12Z</time>
      </trkpt>
      <trkpt lat="44.52783" lon="0.77421">
        <ele>116</ele>
        <time>2007-03-27T15:43:12Z</time>
      </trkpt>
      <trkpt lat="44.52761" lon="0.77459">
        <ele>113</ele>
        <time>2007-03-27T15:43:12Z</time>
      </trkpt>
      <trkpt lat="44.52743" lon="0.77477">
        <ele>112</ele>
        <time>2007-03-27T15:43:12Z</time>
      </trkpt>
      <trkpt lat="44.52722" lon="0.7749">
        <ele>111</ele>
        <time>2007-03-27T15:43:12Z</time>
      </trkpt>
      <trkpt lat="44.52713" lon="0.77519">
        <ele>111</ele>
        <time>2007-03-27T15:43:12Z</time>
      </trkpt>
      <trkpt lat="44.52692" lon="0.77545">
        <ele>111</ele>
        <time>2007-03-27T15:43:12Z</time>
      </trkpt>
      <trkpt lat="44.5267" lon="0.77561">
        <ele>109</ele>
        <time>2007-03-27T15:43:12Z</time>
      </trkpt>
      <trkpt lat="44.52642" lon="0.7757">
        <ele>108</ele>
        <time>2007-03-27T15:43:12Z</time>
      </trkpt>
      <trkpt lat="44.52617" lon="0.77572">
        <ele>108</ele>
        <time>2007-03-27T15:43:12Z</time>
      </trkpt>
      <trkpt lat="44.52572" lon="0.77578">
        <ele>108</ele>
        <time>2007-03-27T15:43:12Z</time>
      </trkpt>
      <trkpt lat="44.52534" lon="0.77576">
        <ele>106</ele>
        <time>2007-03-27T15:43:12Z</time>
      </trkpt>
      <trkpt lat="44.5248" lon="0.77571">
        <ele>102</ele>
        <time>2007-03-27T15:43:12Z</time>
      </trkpt>
      <trkpt lat="44.52336" lon="0.77578">
        <ele>101</ele>
        <time>2007-03-27T15:43:12Z</time>
      </trkpt>
      <trkpt lat="44.52158" lon="0.77585">
        <ele>100</ele>
        <time>2007-03-27T15:43:12Z</time>
      </trkpt>
      <trkpt lat="44.52088" lon="0.77585">
        <ele>97</ele>
        <time>2007-03-27T15:43:12Z</time>
      </trkpt>
      <trkpt lat="44.52085" lon="0.77683">
        <ele>99</ele>
        <time>2007-03-27T15:43:12Z</time>
      </trkpt>
      <trkpt lat="44.51993" lon="0.77682">
        <ele>93</ele>
        <time>2009-02-25T17:05:56Z</time>
      </trkpt>
      <trkpt lat="44.51982" lon="0.77665">
        <ele>93</ele>
        <time>2007-03-27T15:43:12Z</time>
      </trkpt>
      <trkpt lat="44.51978" lon="0.77649">
        <ele>92</ele>
        <time>2009-02-25T17:05:56Z</time>
      </trkpt>
      <trkpt lat="44.51971" lon="0.77615">
        <ele>91</ele>
        <time>2009-02-25T17:05:56Z</time>
      </trkpt>
      <trkpt lat="44.51951" lon="0.77612">
        <ele>90</ele>
        <time>2007-03-27T15:43:12Z</time>
      </trkpt>
      <trkpt lat="44.51905" lon="0.77612">
        <ele>90</ele>
        <time>2007-03-27T15:43:12Z</time>
      </trkpt>
      <trkpt lat="44.51904" lon="0.7759">
        <ele>90</ele>
        <time>2007-03-27T15:43:12Z</time>
      </trkpt>
      <trkpt lat="44.51902" lon="0.77554">
        <ele>90</ele>
        <time>2007-03-27T15:43:12Z</time>
      </trkpt>
      <trkpt lat="44.51892" lon="0.77517">
        <ele>90</ele>
        <time>2007-03-27T15:43:12Z</time>
      </trkpt>
      <trkpt lat="44.51878" lon="0.77471">
        <ele>90</ele>
        <time>2007-03-27T15:43:12Z</time>
      </trkpt>
      <trkpt lat="44.51869" lon="0.77443">
        <ele>90</ele>
        <time>2007-03-27T15:43:12Z</time>
      </trkpt>
      <trkpt lat="44.51861" lon="0.77425">
        <ele>90</ele>
        <time>2007-03-27T15:43:12Z</time>
      </trkpt>
      <trkpt lat="44.51843" lon="0.77452">
        <ele>90</ele>
        <time>2007-03-27T15:43:12Z</time>
      </trkpt>
      <trkpt lat="44.51814" lon="0.77501">
        <ele>91</ele>
        <time>2007-03-27T15:43:12Z</time>
      </trkpt>
      <trkpt lat="44.51787" lon="0.77551">
        <ele>92</ele>
        <time>2007-03-27T15:43:12Z</time>
      </trkpt>
      <trkpt lat="44.51759" lon="0.77593">
        <ele>94</ele>
        <time>2007-03-27T15:43:12Z</time>
      </trkpt>
      <trkpt lat="44.51729" lon="0.77625">
        <ele>97</ele>
        <time>2007-03-27T15:43:12Z</time>
      </trkpt>
      <trkpt lat="44.51695" lon="0.77657">
        <ele>99</ele>
        <time>2007-03-27T15:43:12Z</time>
      </trkpt>
      <trkpt lat="44.51665" lon="0.77682">
        <ele>100</ele>
        <time>2007-03-27T15:43:12Z</time>
      </trkpt>
      <trkpt lat="44.51633" lon="0.77706">
        <ele>99</ele>
        <time>2007-03-27T15:43:12Z</time>
      </trkpt>
      <trkpt lat="44.51599" lon="0.77724">
        <ele>100</ele>
        <time>2007-03-27T15:43:12Z</time>
      </trkpt>
      <trkpt lat="44.51572" lon="0.77734">
        <ele>100</ele>
        <time>2007-03-27T15:43:12Z</time>
      </trkpt>
      <trkpt lat="44.51519" lon="0.77753">
        <ele>100</ele>
        <time>2007-03-27T15:43:12Z</time>
      </trkpt>
      <trkpt lat="44.51462" lon="0.77777">
        <ele>101</ele>
        <time>2007-03-27T15:43:12Z</time>
      </trkpt>
      <trkpt lat="44.51381" lon="0.7781">
        <ele>104</ele>
        <time>2007-03-27T15:43:12Z</time>
      </trkpt>
      <trkpt lat="44.51369" lon="0.77764">
        <ele>105</ele>
        <time>2007-03-27T15:43:12Z</time>
      </trkpt>
      <trkpt lat="44.51338" lon="0.77661">
        <ele>106</ele>
        <time>2007-03-27T15:43:12Z</time>
      </trkpt>
      <trkpt lat="44.51304" lon="0.77549">
        <ele>103</ele>
        <time>2007-03-27T15:43:12Z</time>
      </trkpt>
      <trkpt lat="44.51275" lon="0.77438">
        <ele>101</ele>
        <time>2007-03-27T15:43:12Z</time>
      </trkpt>
      <trkpt lat="44.51291" lon="0.77437">
        <ele>101</ele>
        <time>2007-03-27T15:43:12Z</time>
      </trkpt>
      <trkpt lat="44.51308" lon="0.77387">
        <ele>101</ele>
        <time>2007-03-27T15:43:12Z</time>
      </trkpt>
      <trkpt lat="44.51332" lon="0.77259">
        <ele>100</ele>
        <time>2007-03-27T15:43:12Z</time>
      </trkpt>
      <trkpt lat="44.51353" lon="0.77118">
        <ele>93</ele>
        <time>2007-03-27T15:43:12Z</time>
      </trkpt>
      <trkpt lat="44.51373" lon="0.76984">
        <ele>92</ele>
        <time>2007-03-27T15:43:12Z</time>
      </trkpt>
      <trkpt lat="44.5139" lon="0.76924">
        <ele>92</ele>
        <time>2007-03-27T15:43:12Z</time>
      </trkpt>
      <trkpt lat="44.51427" lon="0.76865">
        <ele>91</ele>
        <time>2009-02-25T17:05:56Z</time>
      </trkpt>
      <trkpt lat="44.5146" lon="0.76774">
        <ele>81</ele>
        <time>2007-03-27T15:43:12Z</time>
      </trkpt>
      <trkpt lat="44.51459" lon="0.76746">
        <ele>79</ele>
        <time>2007-03-27T15:43:12Z</time>
      </trkpt>
      <trkpt lat="44.51434" lon="0.76747">
        <ele>81</ele>
        <time>2007-03-27T15:43:12Z</time>
      </trkpt>
      <trkpt lat="44.51411" lon="0.76744">
        <ele>81</ele>
        <time>2007-03-27T15:43:12Z</time>
      </trkpt>
      <trkpt lat="44.51373" lon="0.76728">
        <ele>80</ele>
        <time>2007-03-27T15:43:12Z</time>
      </trkpt>
      <trkpt lat="44.51334" lon="0.7671">
        <ele>82</ele>
        <time>2007-03-27T15:43:12Z</time>
      </trkpt>
      <trkpt lat="44.51305" lon="0.76694">
        <ele>83</ele>
        <time>2007-03-27T15:43:12Z</time>
      </trkpt>
      <trkpt lat="44.51265" lon="0.76665">
        <ele>84</ele>
        <time>2007-03-27T15:43:12Z</time>
      </trkpt>
      <trkpt lat="44.51246" lon="0.76653">
        <ele>84</ele>
        <time>2007-03-27T15:43:12Z</time>
      </trkpt>
      <trkpt lat="44.51219" lon="0.76644">
        <ele>85</ele>
        <time>2007-03-27T15:43:12Z</time>
      </trkpt>
      <trkpt lat="44.51194" lon="0.76637">
        <ele>85</ele>
        <time>2007-03-27T15:43:12Z</time>
      </trkpt>
      <trkpt lat="44.51166" lon="0.76616">
        <ele>80</ele>
        <time>2007-03-27T15:43:12Z</time>
      </trkpt>
      <trkpt lat="44.51153" lon="0.76607">
        <ele>79</ele>
        <time>2007-03-27T15:43:12Z</time>
      </trkpt>
      <trkpt lat="44.51131" lon="0.76579">
        <ele>77</ele>
        <time>2007-03-27T15:43:12Z</time>
      </trkpt>
      <trkpt lat="44.51109" lon="0.76553">
        <ele>78</ele>
        <time>2007-03-27T15:43:12Z</time>
      </trkpt>
      <trkpt lat="44.51052" lon="0.76514">
        <ele>78</ele>
        <time>2007-03-27T15:43:12Z</time>
      </trkpt>
      <trkpt lat="44.5102" lon="0.76499">
        <ele>78</ele>
        <time>2007-03-27T15:43:12Z</time>
      </trkpt>
      <trkpt lat="44.50906" lon="0.76463">
        <ele>76</ele>
        <time>2007-03-27T15:43:12Z</time>
      </trkpt>
      <trkpt lat="44.50807" lon="0.76433">
        <ele>77</ele>
        <time>2007-03-27T15:43:12Z</time>
      </trkpt>
      <trkpt lat="44.50786" lon="0.76436">
        <ele>76</ele>
        <time>2007-03-27T15:43:12Z</time>
      </trkpt>
      <trkpt lat="44.50757" lon="0.76473">
        <ele>78</ele>
        <time>2007-03-27T15:43:12Z</time>
      </trkpt>
      <trkpt lat="44.50632" lon="0.76628">
        <ele>76</ele>
        <time>2007-03-27T15:43:12Z</time>
      </trkpt>
      <trkpt lat="44.50602" lon="0.7666">
        <ele>76</ele>
        <time>2007-03-27T15:43:12Z</time>
      </trkpt>
      <trkpt lat="44.50573" lon="0.76702">
        <ele>77</ele>
        <time>2007-03-27T15:43:12Z</time>
      </trkpt>
      <trkpt lat="44.50539" lon="0.76743">
        <ele>78</ele>
        <time>2007-03-27T15:43:12Z</time>
      </trkpt>
      <trkpt lat="44.50503" lon="0.76763">
        <ele>78</ele>
        <time>2007-03-27T15:43:12Z</time>
      </trkpt>
      <trkpt lat="44.50422" lon="0.76803">
        <ele>79</ele>
        <time>2007-03-27T15:43:12Z</time>
      </trkpt>
      <trkpt lat="44.5039" lon="0.7682">
        <ele>78</ele>
        <time>2007-03-27T15:43:12Z</time>
      </trkpt>
      <trkpt lat="44.50357" lon="0.76841">
        <ele>75</ele>
        <time>2007-03-27T15:43:12Z</time>
      </trkpt>
      <trkpt lat="44.50333" lon="0.7681">
        <ele>73</ele>
        <time>2007-03-27T15:43:12Z</time>
      </trkpt>
      <trkpt lat="44.50312" lon="0.76773">
        <ele>71</ele>
        <time>2007-03-27T15:43:12Z</time>
      </trkpt>
      <trkpt lat="44.50261" lon="0.76734">
        <ele>71</ele>
        <time>2007-03-27T15:43:12Z</time>
      </trkpt>
      <trkpt lat="44.50229" lon="0.76718">
        <ele>71</ele>
        <time>2007-03-27T15:43:12Z</time>
      </trkpt>
      <trkpt lat="44.50183" lon="0.767">
        <ele>73</ele>
        <time>2007-03-27T15:43:12Z</time>
      </trkpt>
      <trkpt lat="44.50082" lon="0.76662">
        <ele>71</ele>
        <time>2007-03-27T15:43:12Z</time>
      </trkpt>
      <trkpt lat="44.50034" lon="0.76629">
        <ele>69</ele>
        <time>2007-03-27T15:43:12Z</time>
      </trkpt>
      <trkpt lat="44.4999" lon="0.76605">
        <ele>71</ele>
        <time>2007-03-27T15:43:12Z</time>
      </trkpt>
      <trkpt lat="44.49953" lon="0.76584">
        <ele>71</ele>
        <time>2007-03-27T15:43:12Z</time>
      </trkpt>
      <trkpt lat="44.49864" lon="0.76533">
        <ele>71</ele>
        <time>2007-03-27T15:43:12Z</time>
      </trkpt>
      <trkpt lat="44.49821" lon="0.76512">
        <ele>70</ele>
        <time>2007-03-27T15:43:12Z</time>
      </trkpt>
      <trkpt lat="44.49779" lon="0.76485">
        <ele>72</ele>
        <time>2007-03-27T15:43:12Z</time>
      </trkpt>
      <trkpt lat="44.49736" lon="0.76452">
        <ele>73</ele>
        <time>2007-03-27T15:43:12Z</time>
      </trkpt>
      <trkpt lat="44.49702" lon="0.76412">
        <ele>75</ele>
        <time>2007-03-27T15:43:12Z</time>
      </trkpt>
      <trkpt lat="44.49661" lon="0.76366">
        <ele>75</ele>
        <time>2007-03-27T15:43:12Z</time>
      </trkpt>
      <trkpt lat="44.49634" lon="0.76332">
        <ele>76</ele>
        <time>2007-03-27T15:43:12Z</time>
      </trkpt>
      <trkpt lat="44.49607" lon="0.76306">
        <ele>76</ele>
        <time>2007-03-27T15:43:12Z</time>
      </trkpt>
      <trkpt lat="44.49588" lon="0.76292">
        <ele>78</ele>
        <time>2007-03-27T15:43:12Z</time>
      </trkpt>
      <trkpt lat="44.49564" lon="0.76281">
        <ele>79</ele>
        <time>2007-03-27T15:43:12Z</time>
      </trkpt>
      <trkpt lat="44.49526" lon="0.76282">
        <ele>83</ele>
        <time>2007-03-27T15:43:12Z</time>
      </trkpt>
      <trkpt lat="44.49506" lon="0.76282">
        <ele>83</ele>
        <time>2007-03-27T15:43:12Z</time>
      </trkpt>
      <trkpt lat="44.49486" lon="0.76287">
        <ele>83</ele>
        <time>2007-03-27T15:43:12Z</time>
      </trkpt>
      <trkpt lat="44.49462" lon="0.76299">
        <ele>82</ele>
        <time>2007-03-27T15:43:12Z</time>
      </trkpt>
      <trkpt lat="44.49446" lon="0.76315">
        <ele>82</ele>
        <time>2007-03-27T15:43:12Z</time>
      </trkpt>
      <trkpt lat="44.49423" lon="0.76335">
        <ele>81</ele>
        <time>2007-03-27T15:43:12Z</time>
      </trkpt>
      <trkpt lat="44.49402" lon="0.76343">
        <ele>80</ele>
        <time>2007-03-27T15:43:12Z</time>
      </trkpt>
      <trkpt lat="44.49379" lon="0.7635">
        <ele>81</ele>
        <time>2007-03-27T15:43:12Z</time>
      </trkpt>
      <trkpt lat="44.49405" lon="0.76376">
        <ele>82</ele>
        <time>2007-03-27T15:43:12Z</time>
      </trkpt>
      <trkpt lat="44.49424" lon="0.76407">
        <ele>86</ele>
        <time>2007-03-27T15:43:12Z</time>
      </trkpt>
      <trkpt lat="44.49433" lon="0.76443">
        <ele>88</ele>
        <time>2007-03-27T15:43:12Z</time>
      </trkpt>
      <trkpt lat="44.4944" lon="0.76471">
        <ele>89</ele>
        <time>2007-03-27T15:43:12Z</time>
      </trkpt>
      <trkpt lat="44.49445" lon="0.76529">
        <ele>90</ele>
        <time>2007-03-27T15:43:12Z</time>
      </trkpt>
      <trkpt lat="44.49453" lon="0.76599">
        <ele>93</ele>
        <time>2007-03-27T15:43:12Z</time>
      </trkpt>
      <trkpt lat="44.49457" lon="0.76659">
        <ele>95</ele>
        <time>2007-03-27T15:43:12Z</time>
      </trkpt>
      <trkpt lat="44.49457" lon="0.76712">
        <ele>95</ele>
        <time>2007-03-27T15:43:12Z</time>
      </trkpt>
      <trkpt lat="44.49455" lon="0.76763">
        <ele>96</ele>
        <time>2007-03-27T15:43:12Z</time>
      </trkpt>
      <trkpt lat="44.49453" lon="0.76788">
        <ele>96</ele>
        <time>2007-03-27T15:43:12Z</time>
      </trkpt>
      <trkpt lat="44.49451" lon="0.76832">
        <ele>96</ele>
        <time>2007-03-27T15:43:12Z</time>
      </trkpt>
      <trkpt lat="44.49447" lon="0.76873">
        <ele>97</ele>
        <time>2007-03-27T15:43:12Z</time>
      </trkpt>
      <trkpt lat="44.49445" lon="0.76914">
        <ele>98</ele>
        <time>2007-03-27T15:43:12Z</time>
      </trkpt>
      <trkpt lat="44.49447" lon="0.76959">
        <ele>99</ele>
        <time>2007-03-27T15:43:12Z</time>
      </trkpt>
      <trkpt lat="44.49446" lon="0.77002">
        <ele>100</ele>
        <time>2007-03-27T15:43:12Z</time>
      </trkpt>
      <trkpt lat="44.49379" lon="0.76993">
        <ele>100</ele>
        <time>2007-03-27T15:43:12Z</time>
      </trkpt>
      <trkpt lat="44.49326" lon="0.76986">
        <ele>99</ele>
        <time>2007-03-27T15:43:12Z</time>
      </trkpt>
      <trkpt lat="44.49277" lon="0.76983">
        <ele>99</ele>
        <time>2007-03-27T15:43:12Z</time>
      </trkpt>
      <trkpt lat="44.49236" lon="0.76981">
        <ele>100</ele>
        <time>2007-03-27T15:43:12Z</time>
      </trkpt>
      <trkpt lat="44.49208" lon="0.76974">
        <ele>100</ele>
        <time>2007-03-27T15:43:12Z</time>
      </trkpt>
      <trkpt lat="44.49175" lon="0.76964">
        <ele>100</ele>
        <time>2007-03-27T15:43:12Z</time>
      </trkpt>
      <trkpt lat="44.49138" lon="0.76947">
        <ele>100</ele>
        <time>2007-03-27T15:43:12Z</time>
      </trkpt>
      <trkpt lat="44.491" lon="0.76923">
        <ele>98</ele>
        <time>2007-03-27T15:43:12Z</time>
      </trkpt>
      <trkpt lat="44.49063" lon="0.76895">
        <ele>96</ele>
        <time>2007-03-27T15:43:12Z</time>
      </trkpt>
      <trkpt lat="44.49036" lon="0.76869">
        <ele>94</ele>
        <time>2007-03-27T15:43:12Z</time>
      </trkpt>
      <trkpt lat="44.49009" lon="0.76847">
        <ele>93</ele>
        <time>2007-03-27T15:43:12Z</time>
      </trkpt>
      <trkpt lat="44.48995" lon="0.76838">
        <ele>93</ele>
        <time>2007-03-27T15:43:12Z</time>
      </trkpt>
      <trkpt lat="44.4898" lon="0.76837">
        <ele>91</ele>
        <time>2007-03-27T15:43:12Z</time>
      </trkpt>
      <trkpt lat="44.48967" lon="0.76838">
        <ele>91</ele>
        <time>2007-03-27T15:43:12Z</time>
      </trkpt>
      <trkpt lat="44.48955" lon="0.76846">
        <ele>89</ele>
        <time>2007-03-27T15:43:12Z</time>
      </trkpt>
      <trkpt lat="44.48933" lon="0.76861">
        <ele>87</ele>
        <time>2007-03-27T15:43:12Z</time>
      </trkpt>
      <trkpt lat="44.48904" lon="0.76872">
        <ele>83</ele>
        <time>2007-03-27T15:43:12Z</time>
      </trkpt>
      <trkpt lat="44.48866" lon="0.76881">
        <ele>78</ele>
        <time>2007-03-27T15:43:12Z</time>
      </trkpt>
      <trkpt lat="44.48808" lon="0.76894">
        <ele>72</ele>
        <time>2007-03-27T15:43:12Z</time>
      </trkpt>
      <trkpt lat="44.48779" lon="0.76902">
        <ele>70</ele>
        <time>2007-03-27T15:43:12Z</time>
      </trkpt>
      <trkpt lat="44.48765" lon="0.76914">
        <ele>69</ele>
        <time>2007-03-27T15:43:12Z</time>
      </trkpt>
      <trkpt lat="44.48745" lon="0.7694">
        <ele>68</ele>
        <time>2007-03-27T15:43:12Z</time>
      </trkpt>
      <trkpt lat="44.4872" lon="0.7698">
        <ele>66</ele>
        <time>2007-03-27T15:43:12Z</time>
      </trkpt>
      <trkpt lat="44.48699" lon="0.77005">
        <ele>66</ele>
        <time>2007-03-27T15:43:12Z</time>
      </trkpt>
      <trkpt lat="44.48678" lon="0.77033">
        <ele>66</ele>
        <time>2007-03-27T15:43:12Z</time>
      </trkpt>
      <trkpt lat="44.48656" lon="0.77057">
        <ele>67</ele>
        <time>2007-03-27T15:43:12Z</time>
      </trkpt>
      <trkpt lat="44.48644" lon="0.77063">
        <ele>68</ele>
        <time>2007-03-27T15:43:12Z</time>
      </trkpt>
      <trkpt lat="44.48623" lon="0.77073">
        <ele>70</ele>
        <time>2007-03-27T15:43:12Z</time>
      </trkpt>
      <trkpt lat="44.48604" lon="0.77077">
        <ele>72</ele>
        <time>2007-03-27T15:43:12Z</time>
      </trkpt>
      <trkpt lat="44.48583" lon="0.77089">
        <ele>76</ele>
        <time>2007-03-27T15:43:12Z</time>
      </trkpt>
      <trkpt lat="44.48564" lon="0.77099">
        <ele>80</ele>
        <time>2007-03-27T15:43:12Z</time>
      </trkpt>
      <trkpt lat="44.48543" lon="0.77112">
        <ele>84</ele>
        <time>2007-03-27T15:43:12Z</time>
      </trkpt>
      <trkpt lat="44.48521" lon="0.77126">
        <ele>89</ele>
        <time>2007-03-27T15:43:12Z</time>
      </trkpt>
      <trkpt lat="44.48491" lon="0.7713">
        <ele>91</ele>
        <time>2007-03-27T15:43:12Z</time>
      </trkpt>
      <trkpt lat="44.48458" lon="0.77133">
        <ele>93</ele>
        <time>2007-03-27T15:43:12Z</time>
      </trkpt>
      <trkpt lat="44.48425" lon="0.77135">
        <ele>94</ele>
        <time>2007-03-27T15:43:12Z</time>
      </trkpt>
      <trkpt lat="44.48407" lon="0.77137">
        <ele>94</ele>
        <time>2007-03-27T15:43:12Z</time>
      </trkpt>
      <trkpt lat="44.48387" lon="0.77146">
        <ele>94</ele>
        <time>2007-03-27T15:43:12Z</time>
      </trkpt>
      <trkpt lat="44.48365" lon="0.77162">
        <ele>93</ele>
        <time>2007-03-27T15:43:12Z</time>
      </trkpt>
      <trkpt lat="44.48349" lon="0.77177">
        <ele>93</ele>
        <time>2007-03-27T15:43:12Z</time>
      </trkpt>
      <trkpt lat="44.48328" lon="0.77201">
        <ele>93</ele>
        <time>2007-03-27T15:43:12Z</time>
      </trkpt>
      <trkpt lat="44.48302" lon="0.7717">
        <ele>91</ele>
        <time>2007-03-27T15:43:12Z</time>
      </trkpt>
      <trkpt lat="44.48296" lon="0.77147">
        <ele>90</ele>
        <time>2007-03-27T15:43:12Z</time>
      </trkpt>
      <trkpt lat="44.483" lon="0.77131">
        <ele>89</ele>
        <time>2007-03-27T15:43:12Z</time>
      </trkpt>
      <trkpt lat="44.48313" lon="0.77105">
        <ele>90</ele>
        <time>2007-03-27T15:43:12Z</time>
      </trkpt>
      <trkpt lat="44.48269" lon="0.77039">
        <ele>79</ele>
        <time>2009-02-25T17:05:56Z</time>
      </trkpt>
      <trkpt lat="44.48286" lon="0.76971">
        <ele>75</ele>
        <time>2009-02-25T17:05:56Z</time>
      </trkpt>
      <trkpt lat="44.48325" lon="0.76991">
        <ele>81</ele>
        <time>2009-02-25T17:05:56Z</time>
      </trkpt>
      <trkpt lat="44.48344" lon="0.77001">
        <ele>86</ele>
        <time>2007-03-27T15:43:12Z</time>
      </trkpt>
      <trkpt lat="44.48364" lon="0.76974">
        <ele>87</ele>
        <time>2007-03-27T15:43:12Z</time>
      </trkpt>
      <trkpt lat="44.48383" lon="0.76939">
        <ele>84</ele>
        <time>2007-03-27T15:43:12Z</time>
      </trkpt>
      <trkpt lat="44.48405" lon="0.76919">
        <ele>80</ele>
        <time>2007-03-27T15:43:12Z</time>
      </trkpt>
      <trkpt lat="44.48443" lon="0.76901">
        <ele>75</ele>
        <time>2007-03-27T15:43:12Z</time>
      </trkpt>
      <trkpt lat="44.48469" lon="0.76889">
        <ele>73</ele>
        <time>2007-03-27T15:43:12Z</time>
      </trkpt>
      <trkpt lat="44.48475" lon="0.76851">
        <ele>70</ele>
        <time>2007-03-27T15:43:12Z</time>
      </trkpt>
      <trkpt lat="44.48493" lon="0.76799">
        <ele>69</ele>
        <time>2007-03-27T15:43:12Z</time>
      </trkpt>
      <trkpt lat="44.48513" lon="0.76754">
        <ele>68</ele>
        <time>2007-03-27T15:43:12Z</time>
      </trkpt>
      <trkpt lat="44.48525" lon="0.76731">
        <ele>68</ele>
        <time>2007-03-27T15:43:12Z</time>
      </trkpt>
      <trkpt lat="44.4852" lon="0.76687">
        <ele>68</ele>
        <time>2007-03-27T15:43:12Z</time>
      </trkpt>
      <trkpt lat="44.48514" lon="0.76655">
        <ele>69</ele>
        <time>2007-03-27T15:43:12Z</time>
      </trkpt>
      <trkpt lat="44.48507" lon="0.76623">
        <ele>69</ele>
        <time>2007-03-27T15:43:12Z</time>
      </trkpt>
      <trkpt lat="44.48503" lon="0.76601">
        <ele>69</ele>
        <time>2007-03-27T15:43:12Z</time>
      </trkpt>
      <trkpt lat="44.48504" lon="0.76585">
        <ele>69</ele>
        <time>2007-03-27T15:43:12Z</time>
      </trkpt>
      <trkpt lat="44.48508" lon="0.76566">
        <ele>69</ele>
        <time>2007-03-27T15:43:12Z</time>
      </trkpt>
      <trkpt lat="44.48505" lon="0.76555">
        <ele>69</ele>
        <time>2007-03-27T15:43:12Z</time>
      </trkpt>
      <trkpt lat="44.48524" lon="0.76476">
        <ele>69</ele>
        <time>2007-03-27T15:43:12Z</time>
      </trkpt>
      <trkpt lat="44.48525" lon="0.76438">
        <ele>69</ele>
        <time>2007-03-27T15:43:12Z</time>
      </trkpt>
      <trkpt lat="44.4852" lon="0.76401">
        <ele>69</ele>
        <time>2007-03-27T15:43:12Z</time>
      </trkpt>
      <trkpt lat="44.48517" lon="0.76348">
        <ele>68</ele>
        <time>2007-03-27T15:43:12Z</time>
      </trkpt>
      <trkpt lat="44.48521" lon="0.76288">
        <ele>67</ele>
        <time>2007-03-27T15:43:12Z</time>
      </trkpt>
      <trkpt lat="44.48538" lon="0.76239">
        <ele>67</ele>
        <time>2007-03-27T15:43:12Z</time>
      </trkpt>
      <trkpt lat="44.48539" lon="0.76223">
        <ele>67</ele>
        <time>2007-03-27T15:43:12Z</time>
      </trkpt>
      <trkpt lat="44.48514" lon="0.76198">
        <ele>66</ele>
        <time>2007-03-27T15:43:12Z</time>
      </trkpt>
      <trkpt lat="44.48489" lon="0.7616">
        <ele>65</ele>
        <time>2009-02-25T17:05:56Z</time>
      </trkpt>
      <trkpt lat="44.48484" lon="0.76135">
        <ele>65</ele>
        <time>2009-02-25T17:05:56Z</time>
      </trkpt>
      <trkpt lat="44.48493" lon="0.76131">
        <ele>65</ele>
        <time>2009-02-25T17:05:56Z</time>
      </trkpt>
      <trkpt lat="44.4851" lon="0.76131">
        <ele>66</ele>
        <time>2007-03-27T15:43:12Z</time>
      </trkpt>
      <trkpt lat="44.48532" lon="0.76126">
        <ele>68</ele>
        <time>2007-03-27T15:43:12Z</time>
      </trkpt>
      <trkpt lat="44.4855" lon="0.76122">
        <ele>70</ele>
        <time>2007-03-27T15:43:12Z</time>
      </trkpt>
      <trkpt lat="44.48566" lon="0.76109">
        <ele>74</ele>
        <time>2007-03-27T15:43:12Z</time>
      </trkpt>
      <trkpt lat="44.48576" lon="0.76096">
        <ele>77</ele>
        <time>2007-03-27T15:43:12Z</time>
      </trkpt>
      <trkpt lat="44.48584" lon="0.76071">
        <ele>79</ele>
        <time>2007-03-27T15:43:12Z</time>
      </trkpt>
      <trkpt lat="44.48593" lon="0.76047">
        <ele>79</ele>
        <time>2007-03-27T15:43:12Z</time>
      </trkpt>
      <trkpt lat="44.48596" lon="0.76014">
        <ele>78</ele>
        <time>2007-03-27T15:43:12Z</time>
      </trkpt>
      <trkpt lat="44.48597" lon="0.75973">
        <ele>79</ele>
        <time>2007-03-27T15:43:12Z</time>
      </trkpt>
      <trkpt lat="44.48601" lon="0.75899">
        <ele>84</ele>
        <time>2007-03-27T15:43:12Z</time>
      </trkpt>
      <trkpt lat="44.48603" lon="0.75816">
        <ele>84</ele>
        <time>2007-03-27T15:43:12Z</time>
      </trkpt>
      <trkpt lat="44.486" lon="0.75797">
        <ele>84</ele>
        <time>2007-03-27T15:43:12Z</time>
      </trkpt>
      <trkpt lat="44.48597" lon="0.75772">
        <ele>83</ele>
        <time>2007-03-27T15:43:12Z</time>
      </trkpt>
      <trkpt lat="44.48589" lon="0.75753">
        <ele>81</ele>
        <time>2007-03-27T15:43:12Z</time>
      </trkpt>
      <trkpt lat="44.48587" lon="0.75731">
        <ele>81</ele>
        <time>2007-03-27T15:43:12Z</time>
      </trkpt>
      <trkpt lat="44.48587" lon="0.75705">
        <ele>81</ele>
        <time>2007-03-27T15:43:12Z</time>
      </trkpt>
      <trkpt lat="44.48588" lon="0.75697">
        <ele>80</ele>
        <time>2007-03-27T15:43:12Z</time>
      </trkpt>
      <trkpt lat="44.48595" lon="0.75675">
        <ele>80</ele>
        <time>2007-03-27T15:43:12Z</time>
      </trkpt>
      <trkpt lat="44.48524" lon="0.75691">
        <ele>69</ele>
        <time>2007-03-27T15:43:12Z</time>
      </trkpt>
      <trkpt lat="44.48513" lon="0.75625">
        <ele>69</ele>
        <time>2007-03-27T15:43:12Z</time>
      </trkpt>
      <trkpt lat="44.48507" lon="0.75606">
        <ele>69</ele>
        <time>2007-03-27T15:43:12Z</time>
      </trkpt>
      <trkpt lat="44.48488" lon="0.75569">
        <ele>68</ele>
        <time>2007-03-27T15:43:12Z</time>
      </trkpt>
      <trkpt lat="44.48482" lon="0.75515">
        <ele>70</ele>
        <time>2007-03-27T15:43:12Z</time>
      </trkpt>
      <trkpt lat="44.48397" lon="0.75277">
        <ele>71</ele>
        <time>2007-03-27T15:43:12Z</time>
      </trkpt>
      <trkpt lat="44.4841" lon="0.75231">
        <ele>75</ele>
        <time>2007-03-27T15:43:12Z</time>
      </trkpt>
      <trkpt lat="44.48414" lon="0.75198">
        <ele>79</ele>
        <time>2007-03-27T15:43:12Z</time>
      </trkpt>
      <trkpt lat="44.48417" lon="0.75174">
        <ele>81</ele>
        <time>2007-03-27T15:43:12Z</time>
      </trkpt>
      <trkpt lat="44.48411" lon="0.75122">
        <ele>87</ele>
        <time>2007-03-27T15:43:12Z</time>
      </trkpt>
      <trkpt lat="44.4841" lon="0.75092">
        <ele>91</ele>
        <time>2007-03-27T15:43:12Z</time>
      </trkpt>
      <trkpt lat="44.48415" lon="0.75052">
        <ele>94</ele>
        <time>2007-03-27T15:43:12Z</time>
      </trkpt>
      <trkpt lat="44.48417" lon="0.75026">
        <ele>96</ele>
        <time>2007-03-27T15:43:12Z</time>
      </trkpt>
      <trkpt lat="44.48418" lon="0.75003">
        <ele>96</ele>
        <time>2007-03-27T15:43:12Z</time>
      </trkpt>
      <trkpt lat="44.4841" lon="0.74987">
        <ele>97</ele>
        <time>2007-03-27T15:43:12Z</time>
      </trkpt>
      <trkpt lat="44.48392" lon="0.7498">
        <ele>97</ele>
        <time>2007-03-27T15:43:12Z</time>
      </trkpt>
      <trkpt lat="44.48375" lon="0.74969">
        <ele>97</ele>
        <time>2007-03-27T15:43:12Z</time>
      </trkpt>
      <trkpt lat="44.48361" lon="0.74962">
        <ele>97</ele>
        <time>2007-03-27T15:43:12Z</time>
      </trkpt>
      <trkpt lat="44.4835" lon="0.74948">
        <ele>97</ele>
        <time>2007-03-27T15:43:12Z</time>
      </trkpt>
      <trkpt lat="44.48342" lon="0.74934">
        <ele>97</ele>
        <time>2007-03-27T15:43:12Z</time>
      </trkpt>
      <trkpt lat="44.48339" lon="0.74917">
        <ele>96</ele>
        <time>2007-03-27T15:43:12Z</time>
      </trkpt>
      <trkpt lat="44.48342" lon="0.749">
        <ele>96</ele>
        <time>2007-03-27T15:43:12Z</time>
      </trkpt>
      <trkpt lat="44.4835" lon="0.74885">
        <ele>95</ele>
        <time>2007-03-27T15:43:12Z</time>
      </trkpt>
      <trkpt lat="44.48354" lon="0.74877">
        <ele>95</ele>
        <time>2007-03-27T15:43:12Z</time>
      </trkpt>
      <trkpt lat="44.48354" lon="0.74854">
        <ele>94</ele>
        <time>2007-03-27T15:43:12Z</time>
      </trkpt>
      <trkpt lat="44.48348" lon="0.7483">
        <ele>93</ele>
        <time>2007-03-27T15:43:12Z</time>
      </trkpt>
      <trkpt lat="44.48339" lon="0.74813">
        <ele>93</ele>
        <time>2007-03-27T15:43:12Z</time>
      </trkpt>
      <trkpt lat="44.48341" lon="0.74801">
        <ele>93</ele>
        <time>2007-03-27T15:43:12Z</time>
      </trkpt>
      <trkpt lat="44.48383" lon="0.74814">
        <ele>94</ele>
        <time>2007-03-27T15:43:12Z</time>
      </trkpt>
      <trkpt lat="44.4842" lon="0.74649">
        <ele>106</ele>
        <time>2007-03-27T15:43:12Z</time>
      </trkpt>
      <trkpt lat="44.48436" lon="0.74594">
        <ele>109</ele>
        <time>2007-03-27T15:43:12Z</time>
      </trkpt>
      <trkpt lat="44.48504" lon="0.74355">
        <ele>119</ele>
        <time>2007-03-27T15:43:12Z</time>
      </trkpt>
      <trkpt lat="44.48527" lon="0.74266">
        <ele>123</ele>
        <time>2007-03-27T15:43:12Z</time>
      </trkpt>
      <trkpt lat="44.48543" lon="0.742">
        <ele>128</ele>
        <time>2007-03-27T15:43:12Z</time>
      </trkpt>
      <trkpt lat="44.48573" lon="0.74113">
        <ele>134</ele>
        <time>2007-03-27T15:43:12Z</time>
      </trkpt>
      <trkpt lat="44.48608" lon="0.74002">
        <ele>140</ele>
        <time>2007-03-27T15:43:12Z</time>
      </trkpt>
      <trkpt lat="44.48624" lon="0.73945">
        <ele>145</ele>
        <time>2007-03-27T15:43:12Z</time>
      </trkpt>
      <trkpt lat="44.4863" lon="0.73893">
        <ele>150</ele>
        <time>2007-03-27T15:43:12Z</time>
      </trkpt>
      <trkpt lat="44.48634" lon="0.73838">
        <ele>153</ele>
        <time>2007-03-27T15:43:12Z</time>
      </trkpt>
      <trkpt lat="44.4863" lon="0.73786">
        <ele>155</ele>
        <time>2007-03-27T15:43:12Z</time>
      </trkpt>
      <trkpt lat="44.48627" lon="0.73725">
        <ele>156</ele>
        <time>2007-03-27T15:43:12Z</time>
      </trkpt>
      <trkpt lat="44.48628" lon="0.73654">
        <ele>156</ele>
        <time>2007-03-27T15:43:12Z</time>
      </trkpt>
      <trkpt lat="44.48637" lon="0.73603">
        <ele>157</ele>
        <time>2007-03-27T15:43:12Z</time>
      </trkpt>
      <trkpt lat="44.48651" lon="0.73564">
        <ele>158</ele>
        <time>2007-03-27T15:43:12Z</time>
      </trkpt>
      <trkpt lat="44.4868" lon="0.7351">
        <ele>161</ele>
        <time>2007-03-27T15:43:12Z</time>
      </trkpt>
      <trkpt lat="44.48708" lon="0.7346">
        <ele>160</ele>
        <time>2007-03-27T15:43:12Z</time>
      </trkpt>
      <trkpt lat="44.48743" lon="0.73407">
        <ele>159</ele>
        <time>2007-03-27T15:43:12Z</time>
      </trkpt>
      <trkpt lat="44.4879" lon="0.73385">
        <ele>159</ele>
        <time>2007-03-27T15:43:12Z</time>
      </trkpt>
      <trkpt lat="44.48859" lon="0.73365">
        <ele>156</ele>
        <time>2007-03-27T15:43:12Z</time>
      </trkpt>
      <trkpt lat="44.48895" lon="0.73362">
        <ele>155</ele>
        <time>2007-03-27T15:43:12Z</time>
      </trkpt>
      <trkpt lat="44.48919" lon="0.73347">
        <ele>154</ele>
        <time>2007-03-27T15:43:12Z</time>
      </trkpt>
      <trkpt lat="44.48935" lon="0.73333">
        <ele>154</ele>
        <time>2007-03-27T15:43:12Z</time>
      </trkpt>
      <trkpt lat="44.48958" lon="0.73307">
        <ele>155</ele>
        <time>2007-03-27T15:43:12Z</time>
      </trkpt>
      <trkpt lat="44.49" lon="0.73276">
        <ele>155</ele>
        <time>2007-03-27T15:43:12Z</time>
      </trkpt>
      <trkpt lat="44.49056" lon="0.7324">
        <ele>154</ele>
        <time>2007-03-27T15:43:12Z</time>
      </trkpt>
      <trkpt lat="44.49087" lon="0.73215">
        <ele>153</ele>
        <time>2007-03-27T15:43:12Z</time>
      </trkpt>
      <trkpt lat="44.49115" lon="0.73186">
        <ele>154</ele>
        <time>2007-03-27T15:43:12Z</time>
      </trkpt>
      <trkpt lat="44.49137" lon="0.73167">
        <ele>154</ele>
        <time>2007-03-27T15:43:12Z</time>
      </trkpt>
      <trkpt lat="44.49167" lon="0.73139">
        <ele>153</ele>
        <time>2007-03-27T15:43:12Z</time>
      </trkpt>
      <trkpt lat="44.49196" lon="0.73135">
        <ele>152</ele>
        <time>2007-03-27T15:43:12Z</time>
      </trkpt>
      <trkpt lat="44.49232" lon="0.73128">
        <ele>150</ele>
        <time>2007-03-27T15:43:12Z</time>
      </trkpt>
      <trkpt lat="44.49255" lon="0.73115">
        <ele>148</ele>
        <time>2007-03-27T15:43:12Z</time>
      </trkpt>
      <trkpt lat="44.49291" lon="0.7309">
        <ele>147</ele>
        <time>2007-03-27T15:43:12Z</time>
      </trkpt>
      <trkpt lat="44.49363" lon="0.73039">
        <ele>150</ele>
        <time>2007-03-27T15:43:12Z</time>
      </trkpt>
      <trkpt lat="44.49449" lon="0.72979">
        <ele>152</ele>
        <time>2007-03-27T15:43:12Z</time>
      </trkpt>
      <trkpt lat="44.49504" lon="0.72949">
        <ele>150</ele>
        <time>2007-03-27T15:43:12Z</time>
      </trkpt>
      <trkpt lat="44.49538" lon="0.72931">
        <ele>149</ele>
        <time>2007-03-27T15:43:12Z</time>
      </trkpt>
      <trkpt lat="44.496" lon="0.72905">
        <ele>149</ele>
        <time>2007-03-27T15:43:12Z</time>
      </trkpt>
      <trkpt lat="44.497" lon="0.7288">
        <ele>152</ele>
        <time>2007-03-27T15:43:12Z</time>
      </trkpt>
      <trkpt lat="44.49789" lon="0.72861">
        <ele>153</ele>
        <time>2007-03-27T15:43:12Z</time>
      </trkpt>
      <trkpt lat="44.49857" lon="0.72848">
        <ele>155</ele>
        <time>2007-03-27T15:43:12Z</time>
      </trkpt>
      <trkpt lat="44.49882" lon="0.72847">
        <ele>156</ele>
        <time>2007-03-27T15:43:12Z</time>
      </trkpt>
      <trkpt lat="44.49907" lon="0.72854">
        <ele>158</ele>
        <time>2007-03-27T15:43:12Z</time>
      </trkpt>
      <trkpt lat="44.49951" lon="0.72884">
        <ele>160</ele>
        <time>2007-03-27T15:43:12Z</time>
      </trkpt>
      <trkpt lat="44.50014" lon="0.72925">
        <ele>160</ele>
        <time>2007-03-27T15:43:12Z</time>
      </trkpt>
      <trkpt lat="44.50033" lon="0.72938">
        <ele>159</ele>
        <time>2007-03-27T15:43:12Z</time>
      </trkpt>
      <trkpt lat="44.50068" lon="0.72945">
        <ele>155</ele>
        <time>2007-03-27T15:43:12Z</time>
      </trkpt>
      <trkpt lat="44.50106" lon="0.72943">
        <ele>153</ele>
        <time>2007-03-27T15:43:12Z</time>
      </trkpt>
      <trkpt lat="44.50152" lon="0.7293">
        <ele>150</ele>
        <time>2007-03-27T15:43:12Z</time>
      </trkpt>
      <trkpt lat="44.50196" lon="0.72916">
        <ele>149</ele>
        <time>2007-03-27T15:43:12Z</time>
      </trkpt>
      <trkpt lat="44.50239" lon="0.72909">
        <ele>147</ele>
        <time>2007-03-27T15:43:12Z</time>
      </trkpt>
      <trkpt lat="44.50294" lon="0.72901">
        <ele>145</ele>
        <time>2007-03-27T15:43:12Z</time>
      </trkpt>
      <trkpt lat="44.50323" lon="0.729">
        <ele>147</ele>
        <time>2007-03-27T15:43:12Z</time>
      </trkpt>
      <trkpt lat="44.50356" lon="0.72909">
        <ele>148</ele>
        <time>2007-03-27T15:43:12Z</time>
      </trkpt>
      <trkpt lat="44.50375" lon="0.72908">
        <ele>150</ele>
        <time>2007-03-27T15:43:12Z</time>
      </trkpt>
      <trkpt lat="44.50393" lon="0.72903">
        <ele>152</ele>
        <time>2007-03-27T15:43:12Z</time>
      </trkpt>
      <trkpt lat="44.50408" lon="0.72915">
        <ele>151</ele>
        <time>2009-02-25T17:05:56Z</time>
      </trkpt>
      <trkpt lat="44.50428" lon="0.72932">
        <ele>151</ele>
        <time>2007-03-27T15:43:12Z</time>
      </trkpt>
      <trkpt lat="44.50438" lon="0.7291">
        <ele>152</ele>
        <time>2009-02-25T17:05:56Z</time>
      </trkpt>
      <trkpt lat="44.50443" lon="0.72891">
        <ele>152</ele>
        <time>2007-03-27T15:43:12Z</time>
      </trkpt>
      <trkpt lat="44.50449" lon="0.7285">
        <ele>152</ele>
        <time>2007-03-27T15:43:12Z</time>
      </trkpt>
      <trkpt lat="44.50452" lon="0.72771">
        <ele>155</ele>
        <time>2007-03-27T15:43:12Z</time>
      </trkpt>
      <trkpt lat="44.50454" lon="0.72688">
        <ele>158</ele>
        <time>2007-03-27T15:43:12Z</time>
      </trkpt>
      <trkpt lat="44.50459" lon="0.72576">
        <ele>157</ele>
        <time>2007-03-27T15:43:12Z</time>
      </trkpt>
      <trkpt lat="44.50462" lon="0.72518">
        <ele>160</ele>
        <time>2007-03-27T15:43:12Z</time>
      </trkpt>
      <trkpt lat="44.50463" lon="0.725">
        <ele>162</ele>
        <time>2007-03-27T15:43:12Z</time>
      </trkpt>
      <trkpt lat="44.50466" lon="0.72483">
        <ele>164</ele>
        <time>2007-03-27T15:43:12Z</time>
      </trkpt>
      <trkpt lat="44.50477" lon="0.72456">
        <ele>167</ele>
        <time>2007-03-27T15:43:12Z</time>
      </trkpt>
      <trkpt lat="44.50513" lon="0.72391">
        <ele>171</ele>
        <time>2007-03-27T15:43:12Z</time>
      </trkpt>
      <trkpt lat="44.50544" lon="0.72336">
        <ele>173</ele>
        <time>2007-03-27T15:43:12Z</time>
      </trkpt>
      <trkpt lat="44.50577" lon="0.72359">
        <ele>168</ele>
        <time>2007-03-27T15:43:12Z</time>
      </trkpt>
      <trkpt lat="44.50613" lon="0.7238">
        <ele>165</ele>
        <time>2007-03-27T15:43:12Z</time>
      </trkpt>
      <trkpt lat="44.50642" lon="0.72398">
        <ele>162</ele>
        <time>2007-03-27T15:43:12Z</time>
      </trkpt>
      <trkpt lat="44.50702" lon="0.72459">
        <ele>153</ele>
        <time>2007-03-27T15:43:12Z</time>
      </trkpt>
      <trkpt lat="44.50718" lon="0.72484">
        <ele>149</ele>
        <time>2007-03-27T15:43:12Z</time>
      </trkpt>
      <trkpt lat="44.50769" lon="0.7257">
        <ele>139</ele>
        <time>2007-03-27T15:43:12Z</time>
      </trkpt>
      <trkpt lat="44.50802" lon="0.7263">
        <ele>134</ele>
        <time>2007-03-27T15:43:12Z</time>
      </trkpt>
      <trkpt lat="44.50831" lon="0.72692">
        <ele>129</ele>
        <time>2007-03-27T15:43:12Z</time>
      </trkpt>
      <trkpt lat="44.50857" lon="0.72747">
        <ele>123</ele>
        <time>2007-03-27T15:43:12Z</time>
      </trkpt>
      <trkpt lat="44.50878" lon="0.728">
        <ele>118</ele>
        <time>2007-03-27T15:43:12Z</time>
      </trkpt>
      <trkpt lat="44.50895" lon="0.72846">
        <ele>116</ele>
        <time>2007-03-27T15:43:12Z</time>
      </trkpt>
      <trkpt lat="44.50922" lon="0.729">
        <ele>115</ele>
        <time>2007-03-27T15:43:12Z</time>
      </trkpt>
      <trkpt lat="44.50961" lon="0.7295">
        <ele>115</ele>
        <time>2007-03-27T15:43:12Z</time>
      </trkpt>
      <trkpt lat="44.50986" lon="0.72987">
        <ele>115</ele>
        <time>2007-03-27T15:43:12Z</time>
      </trkpt>
      <trkpt lat="44.51015" lon="0.73042">
        <ele>116</ele>
        <time>2007-03-27T15:43:12Z</time>
      </trkpt>
      <trkpt lat="44.51051" lon="0.73128">
        <ele>114</ele>
        <time>2007-03-27T15:43:12Z</time>
      </trkpt>
      <trkpt lat="44.51077" lon="0.73196">
        <ele>112</ele>
        <time>2007-03-27T15:43:12Z</time>
      </trkpt>
      <trkpt lat="44.51099" lon="0.73266">
        <ele>113</ele>
        <time>2007-03-27T15:43:12Z</time>
      </trkpt>
      <trkpt lat="44.51112" lon="0.73299">
        <ele>116</ele>
        <time>2007-03-27T15:43:12Z</time>
      </trkpt>
      <trkpt lat="44.5113" lon="0.73328">
        <ele>118</ele>
        <time>2007-03-27T15:43:12Z</time>
      </trkpt>
      <trkpt lat="44.51154" lon="0.73307">
        <ele>116</ele>
        <time>2007-03-27T15:43:12Z</time>
      </trkpt>
      <trkpt lat="44.51172" lon="0.73297">
        <ele>115</ele>
        <time>2007-03-27T15:43:12Z</time>
      </trkpt>
      <trkpt lat="44.51192" lon="0.7329">
        <ele>113</ele>
        <time>2007-03-27T15:43:12Z</time>
      </trkpt>
      <trkpt lat="44.51204" lon="0.73288">
        <ele>113</ele>
        <time>2007-03-27T15:43:12Z</time>
      </trkpt>
      <trkpt lat="44.5122" lon="0.73289">
        <ele>111</ele>
        <time>2009-02-25T17:05:56Z</time>
      </trkpt>
      <trkpt lat="44.51248" lon="0.73306">
        <ele>111</ele>
        <time>2007-03-27T15:43:12Z</time>
      </trkpt>
      <trkpt lat="44.51296" lon="0.73333">
        <ele>109</ele>
        <time>2007-03-27T15:43:12Z</time>
      </trkpt>
      <trkpt lat="44.51341" lon="0.7336">
        <ele>104</ele>
        <time>2007-03-27T15:43:12Z</time>
      </trkpt>
      <trkpt lat="44.51364" lon="0.73391">
        <ele>100</ele>
        <time>2007-03-27T15:43:12Z</time>
      </trkpt>
      <trkpt lat="44.51387" lon="0.73432">
        <ele>97</ele>
        <time>2007-03-27T15:43:12Z</time>
      </trkpt>
      <trkpt lat="44.51407" lon="0.73479">
        <ele>94</ele>
        <time>2007-03-27T15:43:12Z</time>
      </trkpt>
      <trkpt lat="44.51428" lon="0.73535">
        <ele>91</ele>
        <time>2007-03-27T15:43:12Z</time>
      </trkpt>
      <trkpt lat="44.51434" lon="0.73576">
        <ele>91</ele>
        <time>2007-03-27T15:43:12Z</time>
      </trkpt>
      <trkpt lat="44.51442" lon="0.73624">
        <ele>90</ele>
        <time>2007-03-27T15:43:12Z</time>
      </trkpt>
      <trkpt lat="44.51443" lon="0.73652">
        <ele>90</ele>
        <time>2007-03-27T15:43:12Z</time>
      </trkpt>
      <trkpt lat="44.51447" lon="0.73692">
        <ele>89</ele>
        <time>2007-03-27T15:43:12Z</time>
      </trkpt>
      <trkpt lat="44.51457" lon="0.73732">
        <ele>87</ele>
        <time>2007-03-27T15:43:12Z</time>
      </trkpt>
      <trkpt lat="44.51472" lon="0.73766">
        <ele>84</ele>
        <time>2007-03-27T15:43:12Z</time>
      </trkpt>
      <trkpt lat="44.51499" lon="0.73817">
        <ele>81</ele>
        <time>2007-03-27T15:43:12Z</time>
      </trkpt>
      <trkpt lat="44.51514" lon="0.73853">
        <ele>80</ele>
        <time>2007-03-27T15:43:12Z</time>
      </trkpt>
      <trkpt lat="44.5154" lon="0.73909">
        <ele>79</ele>
        <time>2007-03-27T15:43:12Z</time>
      </trkpt>
      <trkpt lat="44.51556" lon="0.73934">
        <ele>78</ele>
        <time>2007-03-27T15:43:12Z</time>
      </trkpt>
      <trkpt lat="44.51578" lon="0.73964">
        <ele>77</ele>
        <time>2007-03-27T15:43:12Z</time>
      </trkpt>
      <trkpt lat="44.51609" lon="0.73993">
        <ele>76</ele>
        <time>2007-03-27T15:43:12Z</time>
      </trkpt>
      <trkpt lat="44.51642" lon="0.74027">
        <ele>74</ele>
        <time>2007-03-27T15:43:12Z</time>
      </trkpt>
      <trkpt lat="44.51669" lon="0.74047">
        <ele>73</ele>
        <time>2007-03-27T15:43:12Z</time>
      </trkpt>
      <trkpt lat="44.51725" lon="0.74078">
        <ele>72</ele>
        <time>2007-03-27T15:43:12Z</time>
      </trkpt>
      <trkpt lat="44.51782" lon="0.74114">
        <ele>71</ele>
        <time>2007-03-27T15:43:12Z</time>
      </trkpt>
      <trkpt lat="44.51835" lon="0.74158">
        <ele>71</ele>
        <time>2007-03-27T15:43:12Z</time>
      </trkpt>
      <trkpt lat="44.51861" lon="0.74183">
        <ele>71</ele>
        <time>2007-03-27T15:43:12Z</time>
      </trkpt>
      <trkpt lat="44.51906" lon="0.74218">
        <ele>71</ele>
        <time>2007-03-27T15:43:12Z</time>
      </trkpt>
      <trkpt lat="44.51939" lon="0.74253">
        <ele>73</ele>
        <time>2007-03-27T15:43:12Z</time>
      </trkpt>
      <trkpt lat="44.51955" lon="0.7427">
        <ele>75</ele>
        <time>2007-03-27T15:43:12Z</time>
      </trkpt>
      <trkpt lat="44.51969" lon="0.74288">
        <ele>78</ele>
        <time>2007-03-27T15:43:12Z</time>
      </trkpt>
      <trkpt lat="44.51981" lon="0.74291">
        <ele>81</ele>
        <time>2007-03-27T15:43:12Z</time>
      </trkpt>
      <trkpt lat="44.51996" lon="0.74292">
        <ele>83</ele>
        <time>2007-03-27T15:43:12Z</time>
      </trkpt>
      <trkpt lat="44.52005" lon="0.74292">
        <ele>85</ele>
        <time>2007-03-27T15:43:12Z</time>
      </trkpt>
      <trkpt lat="44.52021" lon="0.74288">
        <ele>87</ele>
        <time>2007-03-27T15:43:12Z</time>
      </trkpt>
      <trkpt lat="44.52039" lon="0.74275">
        <ele>86</ele>
        <time>2007-03-27T15:43:12Z</time>
      </trkpt>
      <trkpt lat="44.52064" lon="0.74257">
        <ele>83</ele>
        <time>2007-03-27T15:43:12Z</time>
      </trkpt>
      <trkpt lat="44.52084" lon="0.74241">
        <ele>83</ele>
        <time>2007-03-27T15:43:12Z</time>
      </trkpt>
      <trkpt lat="44.52099" lon="0.74229">
        <ele>85</ele>
        <time>2007-03-27T15:43:12Z</time>
      </trkpt>
      <trkpt lat="44.52119" lon="0.74224">
        <ele>90</ele>
        <time>2007-03-27T15:43:12Z</time>
      </trkpt>
      <trkpt lat="44.52146" lon="0.74179">
        <ele>97</ele>
        <time>2007-03-27T15:43:12Z</time>
      </trkpt>
      <trkpt lat="44.52167" lon="0.74138">
        <ele>97</ele>
        <time>2007-03-27T15:43:12Z</time>
      </trkpt>
      <trkpt lat="44.52197" lon="0.7411">
        <ele>95</ele>
        <time>2007-03-27T15:43:12Z</time>
      </trkpt>
      <trkpt lat="44.52226" lon="0.74097">
        <ele>94</ele>
        <time>2007-03-27T15:43:12Z</time>
      </trkpt>
      <trkpt lat="44.52276" lon="0.74083">
        <ele>88</ele>
        <time>2007-03-27T15:43:12Z</time>
      </trkpt>
      <trkpt lat="44.52316" lon="0.74083">
        <ele>85</ele>
        <time>2007-03-27T15:43:12Z</time>
      </trkpt>
      <trkpt lat="44.5234" lon="0.74084">
        <ele>82</ele>
        <time>2007-03-27T15:43:12Z</time>
      </trkpt>
      <trkpt lat="44.52378" lon="0.74099">
        <ele>79</ele>
        <time>2007-03-27T15:43:12Z</time>
      </trkpt>
      <trkpt lat="44.52411" lon="0.74125">
        <ele>78</ele>
        <time>2007-03-27T15:43:12Z</time>
      </trkpt>
      <trkpt lat="44.52461" lon="0.74159">
        <ele>77</ele>
        <time>2007-03-27T15:43:12Z</time>
      </trkpt>
      <trkpt lat="44.52489" lon="0.74181">
        <ele>78</ele>
        <time>2007-03-27T15:43:12Z</time>
      </trkpt>
      <trkpt lat="44.52502" lon="0.74193">
        <ele>78</ele>
        <time>2007-03-27T15:43:12Z</time>
      </trkpt>
      <trkpt lat="44.52519" lon="0.74199">
        <ele>78</ele>
        <time>2007-03-27T15:43:12Z</time>
      </trkpt>
      <trkpt lat="44.52564" lon="0.74197">
        <ele>78</ele>
        <time>2007-03-27T15:43:12Z</time>
      </trkpt>
      <trkpt lat="44.52607" lon="0.7419">
        <ele>77</ele>
        <time>2007-03-27T15:43:12Z</time>
      </trkpt>
      <trkpt lat="44.52631" lon="0.74194">
        <ele>77</ele>
        <time>2007-03-27T15:43:12Z</time>
      </trkpt>
      <trkpt lat="44.52661" lon="0.7421">
        <ele>78</ele>
        <time>2007-03-27T15:43:12Z</time>
      </trkpt>
      <trkpt lat="44.52671" lon="0.74216">
        <ele>78</ele>
        <time>2009-02-25T17:05:56Z</time>
      </trkpt>
      <trkpt lat="44.52685" lon="0.74217">
        <ele>78</ele>
        <time>2007-03-27T15:43:12Z</time>
      </trkpt>
      <trkpt lat="44.52708" lon="0.74217">
        <ele>79</ele>
        <time>2007-03-27T15:43:12Z</time>
      </trkpt>
      <trkpt lat="44.52718" lon="0.7422">
        <ele>79</ele>
        <time>2009-02-25T17:05:56Z</time>
      </trkpt>
      <trkpt lat="44.52725" lon="0.74237">
        <ele>80</ele>
        <time>2007-03-27T15:43:12Z</time>
      </trkpt>
      <trkpt lat="44.5275" lon="0.74282">
        <ele>82</ele>
        <time>2007-03-27T15:43:12Z</time>
      </trkpt>
      <trkpt lat="44.52763" lon="0.74316">
        <ele>84</ele>
        <time>2007-03-27T15:43:12Z</time>
      </trkpt>
      <trkpt lat="44.52767" lon="0.74353">
        <ele>86</ele>
        <time>2007-03-27T15:43:12Z</time>
      </trkpt>
      <trkpt lat="44.52768" lon="0.74385">
        <ele>88</ele>
        <time>2007-03-27T15:43:12Z</time>
      </trkpt>
      <trkpt lat="44.5277" lon="0.74419">
        <ele>91</ele>
        <time>2007-03-27T15:43:12Z</time>
      </trkpt>
      <trkpt lat="44.52815" lon="0.74413">
        <ele>85</ele>
        <time>2007-03-27T15:43:12Z</time>
      </trkpt>
      <trkpt lat="44.52835" lon="0.74418">
        <ele>82</ele>
        <time>2007-03-27T15:43:12Z</time>
      </trkpt>
      <trkpt lat="44.52872" lon="0.74432">
        <ele>81</ele>
        <time>2009-02-25T17:05:56Z</time>
      </trkpt>
      <trkpt lat="44.52884" lon="0.74444">
        <ele>82</ele>
        <time>2007-03-27T15:43:12Z</time>
      </trkpt>
      <trkpt lat="44.5292" lon="0.74462">
        <ele>89</ele>
        <time>2009-02-25T17:05:56Z</time>
      </trkpt>
      <trkpt lat="44.52946" lon="0.74477">
        <ele>89</ele>
        <time>2007-03-27T15:43:12Z</time>
      </trkpt>
      <trkpt lat="44.52948" lon="0.74485">
        <ele>89</ele>
        <time>2009-02-25T17:05:56Z</time>
      </trkpt>
      <trkpt lat="44.52945" lon="0.74496">
        <ele>91</ele>
        <time>2007-03-27T15:43:12Z</time>
      </trkpt>
      <trkpt lat="44.52957" lon="0.74508">
        <ele>89</ele>
        <time>2007-03-27T15:43:12Z</time>
      </trkpt>
      <trkpt lat="44.52966" lon="0.74587">
        <ele>90</ele>
        <time>2007-03-27T15:43:12Z</time>
      </trkpt>
      <trkpt lat="44.5297" lon="0.7464">
        <ele>90</ele>
        <time>2007-03-27T15:43:12Z</time>
      </trkpt>
      <trkpt lat="44.52971" lon="0.74689">
        <ele>92</ele>
        <time>2007-03-27T15:43:12Z</time>
      </trkpt>
      <trkpt lat="44.5299" lon="0.74731">
        <ele>91</ele>
        <time>2007-03-27T15:43:12Z</time>
      </trkpt>
      <trkpt lat="44.52991" lon="0.74779">
        <ele>92</ele>
        <time>2007-03-27T15:43:12Z</time>
      </trkpt>
      <trkpt lat="44.52996" lon="0.74837">
        <ele>92</ele>
        <time>2007-03-27T15:43:12Z</time>
      </trkpt>
      <trkpt lat="44.52996" lon="0.74863">
        <ele>94</ele>
        <time>2007-03-27T15:43:12Z</time>
      </trkpt>
      <trkpt lat="44.52994" lon="0.74892">
        <ele>95</ele>
        <time>2007-03-27T15:43:12Z</time>
      </trkpt>
      <trkpt lat="44.52979" lon="0.74913">
        <ele>98</ele>
        <time>2007-03-27T15:43:12Z</time>
      </trkpt>
      <trkpt lat="44.52964" lon="0.74925">
        <ele>100</ele>
        <time>2007-03-27T15:43:12Z</time>
      </trkpt>
      <trkpt lat="44.52955" lon="0.74942">
        <ele>102</ele>
        <time>2007-03-27T15:43:12Z</time>
      </trkpt>
      <trkpt lat="44.52949" lon="0.74997">
        <ele>103</ele>
        <time>2007-03-27T15:43:12Z</time>
      </trkpt>
      <trkpt lat="44.52947" lon="0.75067">
        <ele>103</ele>
        <time>2007-03-27T15:43:12Z</time>
      </trkpt>
      <trkpt lat="44.52946" lon="0.75106">
        <ele>102</ele>
        <time>2007-03-27T15:43:12Z</time>
      </trkpt>
      <trkpt lat="44.52944" lon="0.75126">
        <ele>102</ele>
        <time>2007-03-27T15:43:12Z</time>
      </trkpt>
      <trkpt lat="44.52933" lon="0.7515">
        <ele>102</ele>
        <time>2007-03-27T15:43:12Z</time>
      </trkpt>
      <trkpt lat="44.5291" lon="0.75184">
        <ele>102</ele>
        <time>2007-03-27T15:43:12Z</time>
      </trkpt>
      <trkpt lat="44.52886" lon="0.75224">
        <ele>103</ele>
        <time>2007-03-27T15:43:12Z</time>
      </trkpt>
      <trkpt lat="44.52882" lon="0.75227">
        <ele>103</ele>
        <time>2007-03-27T15:43:12Z</time>
      </trkpt>
      <trkpt lat="44.52862" lon="0.75284">
        <ele>104</ele>
        <time>2007-03-27T15:43:12Z</time>
      </trkpt>
      <trkpt lat="44.52847" lon="0.75321">
        <ele>105</ele>
        <time>2007-03-27T15:43:12Z</time>
      </trkpt>
      <trkpt lat="44.52853" lon="0.75357">
        <ele>106</ele>
        <time>2007-03-27T15:43:12Z</time>
      </trkpt>
      <trkpt lat="44.52855" lon="0.7538">
        <ele>107</ele>
        <time>2009-02-25T17:05:56Z</time>
      </trkpt>
      <trkpt lat="44.52854" lon="0.75398">
        <ele>107</ele>
        <time>2009-02-25T17:05:56Z</time>
      </trkpt>
      <trkpt lat="44.52866" lon="0.75397">
        <ele>108</ele>
        <time>2009-02-25T17:05:56Z</time>
      </trkpt>
      <trkpt lat="44.52884" lon="0.75394">
        <ele>110</ele>
        <time>2007-03-27T15:43:12Z</time>
      </trkpt>
      <trkpt lat="44.52905" lon="0.75384">
        <ele>111</ele>
        <time>2007-03-27T15:43:12Z</time>
      </trkpt>
      <trkpt lat="44.52924" lon="0.75371">
        <ele>111</ele>
        <time>2007-03-27T15:43:12Z</time>
      </trkpt>
      <trkpt lat="44.52939" lon="0.75359">
        <ele>112</ele>
        <time>2007-03-27T15:43:12Z</time>
      </trkpt>
      <trkpt lat="44.52956" lon="0.75341">
        <ele>112</ele>
        <time>2007-03-27T15:43:12Z</time>
      </trkpt>
      <trkpt lat="44.52969" lon="0.75335">
        <ele>112</ele>
        <time>2007-03-27T15:43:12Z</time>
      </trkpt>
      <trkpt lat="44.52979" lon="0.75331">
        <ele>113</ele>
        <time>2007-03-27T15:43:12Z</time>
      </trkpt>
      <trkpt lat="44.52997" lon="0.75347">
        <ele>114</ele>
        <time>2007-03-27T15:43:12Z</time>
      </trkpt>
      <trkpt lat="44.53016" lon="0.75371">
        <ele>115</ele>
        <time>2007-03-27T15:43:12Z</time>
      </trkpt>
      <trkpt lat="44.5303" lon="0.75398">
        <ele>116</ele>
        <time>2007-03-27T15:43:12Z</time>
      </trkpt>
      <trkpt lat="44.5304" lon="0.75419">
        <ele>117</ele>
        <time>2007-03-27T15:43:12Z</time>
      </trkpt>
      <trkpt lat="44.53048" lon="0.75452">
        <ele>118</ele>
        <time>2007-03-27T15:43:12Z</time>
      </trkpt>
      <trkpt lat="44.53058" lon="0.75491">
        <ele>118</ele>
        <time>2007-03-27T15:43:12Z</time>
      </trkpt>
      <trkpt lat="44.53094" lon="0.75477">
        <ele>120</ele>
        <time>2007-03-27T15:43:12Z</time>
      </trkpt>
      <trkpt lat="44.53117" lon="0.75477">
        <ele>120</ele>
        <time>2007-03-27T15:43:12Z</time>
      </trkpt>
      <trkpt lat="44.53142" lon="0.75476">
        <ele>120</ele>
        <time>2007-03-27T15:43:12Z</time>
      </trkpt>
      <trkpt lat="44.53187" lon="0.75476">
        <ele>121</ele>
        <time>2007-03-27T15:43:12Z</time>
      </trkpt>
      <trkpt lat="44.53195" lon="0.75487">
        <ele>121</ele>
        <time>2009-02-25T17:05:56Z</time>
      </trkpt>
      <trkpt lat="44.53189" lon="0.75546">
        <ele>123</ele>
        <time>2007-03-27T15:43:12Z</time>
      </trkpt>
      <trkpt lat="44.53183" lon="0.75621">
        <ele>123</ele>
        <time>2007-03-27T15:43:12Z</time>
      </trkpt>
      <trkpt lat="44.53179" lon="0.75673">
        <ele>123</ele>
        <time>2007-03-27T15:43:12Z</time>
      </trkpt>
      <trkpt lat="44.53178" lon="0.75716">
        <ele>123</ele>
        <time>2007-03-27T15:43:12Z</time>
      </trkpt>
      <trkpt lat="44.53176" lon="0.75764">
        <ele>123</ele>
        <time>2007-03-27T15:43:12Z</time>
      </trkpt>
      <trkpt lat="44.53178" lon="0.7583">
        <ele>123</ele>
        <time>2007-03-27T15:43:12Z</time>
      </trkpt>
      <trkpt lat="44.5318" lon="0.75888">
        <ele>122</ele>
        <time>2007-03-27T15:43:12Z</time>
      </trkpt>
      <trkpt lat="44.53182" lon="0.75936">
        <ele>121</ele>
        <time>2007-03-27T15:43:12Z</time>
      </trkpt>
      <trkpt lat="44.53179" lon="0.75988">
        <ele>122</ele>
        <time>2007-03-27T15:43:12Z</time>
      </trkpt>
      <trkpt lat="44.53176" lon="0.76041">
        <ele>122</ele>
        <time>2007-03-27T15:43:12Z</time>
      </trkpt>
      <trkpt lat="44.53175" lon="0.76085">
        <ele>123</ele>
        <time>2007-03-27T15:43:12Z</time>
      </trkpt>
      <trkpt lat="44.53176" lon="0.76112">
        <ele>123</ele>
        <time>2007-03-27T15:43:12Z</time>
      </trkpt>
      <trkpt lat="44.53182" lon="0.76156">
        <ele>125</ele>
        <time>2007-03-27T15:43:12Z</time>
      </trkpt>
      <trkpt lat="44.53197" lon="0.76245">
        <ele>128</ele>
        <time>2007-03-27T15:43:12Z</time>
      </trkpt>
      <trkpt lat="44.53205" lon="0.76309">
        <ele>131</ele>
        <time>2007-03-27T15:43:12Z</time>
      </trkpt>
      <trkpt lat="44.53212" lon="0.76358">
        <ele>134</ele>
        <time>2007-03-27T15:43:12Z</time>
      </trkpt>
      <trkpt lat="44.5321" lon="0.76391">
        <ele>135</ele>
        <time>2007-03-27T15:43:12Z</time>
      </trkpt>
      <trkpt lat="44.53206" lon="0.76433">
        <ele>136</ele>
        <time>2007-03-27T15:43:12Z</time>
      </trkpt>
      <trkpt lat="44.53195" lon="0.76482">
        <ele>137</ele>
        <time>2007-03-27T15:43:12Z</time>
      </trkpt>
      <trkpt lat="44.53194" lon="0.76517">
        <ele>139</ele>
        <time>2007-03-27T15:43:12Z</time>
      </trkpt>
      <trkpt lat="44.53192" lon="0.76556">
        <ele>147</ele>
        <time>2007-03-27T15:43:12Z</time>
      </trkpt>
      <trkpt lat="44.53167" lon="0.76571">
        <ele>149</ele>
        <time>2007-03-27T15:43:12Z</time>
      </trkpt>
      <trkpt lat="44.53146" lon="0.76587">
        <ele>150</ele>
        <time>2007-03-27T15:43:12Z</time>
      </trkpt>
      <trkpt lat="44.53129" lon="0.76605">
        <ele>150</ele>
        <time>2007-03-27T15:43:12Z</time>
      </trkpt>
      <trkpt lat="44.53112" lon="0.76628">
        <ele>151</ele>
        <time>2007-03-27T15:43:12Z</time>
      </trkpt>
      <trkpt lat="44.53097" lon="0.76664">
        <ele>153</ele>
        <time>2007-03-27T15:43:12Z</time>
      </trkpt>
      <trkpt lat="44.53083" lon="0.76707">
        <ele>157</ele>
        <time>2007-03-27T15:43:12Z</time>
      </trkpt>
      <trkpt lat="44.53071" lon="0.76736">
        <ele>157</ele>
        <time>2007-03-27T15:43:12Z</time>
      </trkpt>
      <trkpt lat="44.53063" lon="0.76769">
        <ele>158</ele>
        <time>2007-03-27T15:43:12Z</time>
      </trkpt>
      <trkpt lat="44.53053" lon="0.76804">
        <ele>157</ele>
        <time>2007-03-27T15:43:12Z</time>
      </trkpt>
      <trkpt lat="44.53052" lon="0.76826">
        <ele>157</ele>
        <time>2007-03-27T15:43:12Z</time>
      </trkpt>
      <trkpt lat="44.53046" lon="0.7684">
        <ele>157</ele>
        <time>2009-02-25T17:05:56Z</time>
      </trkpt>
      <trkpt lat="44.5304" lon="0.76836">
        <ele>156</ele>
        <time>2009-02-25T17:05:56Z</time>
      </trkpt>
      <trkpt lat="44.5303" lon="0.76861">
        <ele>153</ele>
        <time>2007-03-27T15:43:12Z</time>
      </trkpt>
      <trkpt lat="44.53" lon="0.76865">
        <ele>148</ele>
        <time>2007-03-27T15:43:12Z</time>
      </trkpt>
    </trkseg>
  </trk>
</gpx>